Sadsburyville, PA

3:28 AM EDT on August 26, 2016 (GMT -0400)
Chester County Carlson

Weather History for KMQS - March, 2014

Change the Weather History Date:

Thursday, March 13, 2014

  Actual Average (KLNS) Record (KLNS)
Temperature  
Mean Temperature 24 °F -  
Max Temperature 30 °F 50 °F 81 °F (1990)
Min Temperature 19 °F 29 °F 19 °F (1989)
Degree Days  
Heating Degree Days 40    
Moisture  
Dew Point 4 °F    
Average Humidity 43    
Maximum Humidity 63    
Minimum Humidity 25    
Precipitation  
Precipitation 0.00 in - - ()
Sea Level Pressure  
Sea Level Pressure 29.77 in    
Wind  
Wind Speed 23 mph (NW)    
Max Wind Speed 36 mph    
Max Gust Speed 43 mph    
Visibility 10 miles    
Events Snow    
Averages and records for this station are not official NWS values.
T = Trace of Precipitation, MM = Missing Value Source: NWS Daily Summary

Daily Weather History Graph

Daily Weather History Graph

Search for Another Location

Airport or City:

Trip Planner

Search our weather history database for the weather conditions in past years. The results will help you decide how hot, cold, wet, or windy it might be!

Date:

Astronomy

Mar. 13, 2014 Rise Set
Actual Time 7:18 AM EDT 7:08 PM EDT
Civil Twilight 6:51 AM EDT 7:35 PM EDT
Nautical Twilight 6:19 AM EDT 8:06 PM EDT
Astronomical Twilight 5:48 AM EDT 8:38 PM EDT
Moon 4:32 PM EDT (3/13) 5:23 AM EDT (3/13)
Length of Visible Light 12h 44m
Length of Day
11h 50m
Waxing Gibbous, 91% of the Moon is Illuminated
Mar 13
Waxing Gibbous
Mar 16
Full
Mar 23
Last Quarter
Mar 30
New
Apr 7
First Quarter

Hourly Weather History & Observations

Time (EDT) Temp. Windchill Dew Point Humidity Pressure Visibility Wind Dir Wind Speed Gust Speed Precip Events Conditions
12:15 AM 26.6 °F 11.7 °F 14.0 °F 59% 29.38 in 10.0 mi NW 24.2 mph 36.8 mph N/A   Overcast
12:35 AM 24.8 °F 8.4 °F 12.2 °F 59% 29.38 in 10.0 mi NW 27.6 mph 40.3 mph N/A   Mostly Cloudy
12:55 AM 23.0 °F 6.6 °F 10.4 °F 59% 29.40 in 10.0 mi NNW 25.3 mph 40.3 mph N/A   Partly Cloudy
1:15 AM 23.0 °F 7.2 °F 12.2 °F 63% 29.42 in 10.0 mi NW 23.0 mph 34.5 mph N/A   Scattered Clouds
1:35 AM 23.0 °F 7.2 °F 10.4 °F 59% 29.43 in 10.0 mi NNW 23.0 mph 40.3 mph N/A Snow Light Snow
1:55 AM 23.0 °F 6.6 °F 10.4 °F 59% 29.45 in 10.0 mi NNW 25.3 mph 36.8 mph N/A   Partly Cloudy
2:15 AM 23.0 °F 8.0 °F 8.6 °F 54% 29.45 in 10.0 mi NW 20.7 mph 36.8 mph N/A   Clear
2:35 AM 21.2 °F 4.9 °F 10.4 °F 63% 29.46 in 10.0 mi NNW 23.0 mph 35.7 mph N/A   Partly Cloudy
2:55 AM 21.2 °F 7.3 °F 8.6 °F 58% 29.47 in 10.0 mi NNW 16.1 mph 28.8 mph N/A   Scattered Clouds
3:15 AM 23.0 °F 6.9 °F 8.6 °F 54% 29.48 in 10.0 mi NNW 24.2 mph 41.4 mph N/A   Mostly Cloudy
3:35 AM 21.2 °F 6.8 °F 8.6 °F 58% 29.50 in 10.0 mi NNW 17.3 mph 38.0 mph N/A   Overcast
3:55 AM 21.2 °F 3.5 °F 8.6 °F 58% 29.51 in 10.0 mi NW 27.6 mph 35.7 mph N/A   Mostly Cloudy
4:15 AM 21.2 °F 3.0 °F 6.8 °F 54% 29.52 in 10.0 mi NNW 29.9 mph 42.6 mph N/A   Overcast
4:35 AM 21.2 °F 4.2 °F 6.8 °F 54% 29.52 in 10.0 mi NW 25.3 mph 38.0 mph N/A   Mostly Cloudy
4:55 AM 21.2 °F 3.0 °F 6.8 °F 54% 29.54 in 10.0 mi NW 29.9 mph 40.3 mph N/A   Scattered Clouds
5:15 AM 21.2 °F 6.0 °F 5.0 °F 50% 29.55 in 10.0 mi NNW 19.6 mph 33.4 mph N/A   Clear
5:35 AM 21.2 °F 1.7 °F 5.0 °F 50% 29.57 in 10.0 mi NW 35.7 mph 41.4 mph N/A   Clear
5:55 AM 19.4 °F 3.6 °F 5.0 °F 54% 29.59 in 10.0 mi NW 19.6 mph 36.8 mph N/A   Clear
6:15 AM 19.4 °F 2.1 °F 5.0 °F 54% 29.60 in 10.0 mi NW 24.2 mph 40.3 mph N/A   Clear
6:35 AM 19.4 °F 2.5 °F 5.0 °F 54% 29.62 in 10.0 mi NW 23.0 mph 32.2 mph N/A   Scattered Clouds
6:55 AM 19.4 °F 1.4 °F 5.0 °F 54% 29.62 in 10.0 mi NW 26.5 mph 32.2 mph N/A   Scattered Clouds
7:15 AM 19.4 °F 1.4 °F 5.0 °F 54% 29.63 in 10.0 mi NW 26.5 mph 38.0 mph N/A   Partly Cloudy
7:35 AM 19.4 °F 4.1 °F 5.0 °F 54% 29.65 in 10.0 mi NW 18.4 mph 25.3 mph N/A   Clear
7:55 AM 19.4 °F 1.1 °F 3.2 °F 49% 29.66 in 10.0 mi NW 27.6 mph 35.7 mph N/A   Clear
8:15 AM 19.4 °F 1.4 °F 5.0 °F 54% 29.68 in 10.0 mi NW 26.5 mph 33.4 mph N/A   Mostly Cloudy
8:35 AM 19.4 °F 2.5 °F 5.0 °F 54% 29.69 in 10.0 mi NW 23.0 mph 33.4 mph N/A   Scattered Clouds
8:55 AM 21.2 °F 6.4 °F 8.6 °F 58% 29.71 in 10.0 mi NW 18.4 mph 26.5 mph N/A   Scattered Clouds
9:15 AM 21.2 °F 3.5 °F 8.6 °F 58% 29.71 in 10.0 mi NW 27.6 mph 33.4 mph N/A Snow Light Snow
9:35 AM 21.2 °F 6.4 °F 6.8 °F 54% 29.72 in 10.0 mi NNW 18.4 mph 31.1 mph N/A   Mostly Cloudy
9:55 AM 21.2 °F 4.9 °F 6.8 °F 54% 29.73 in 10.0 mi NW 23.0 mph 34.5 mph N/A   Mostly Cloudy
10:15 AM 23.0 °F 8.0 °F 8.6 °F 54% 29.74 in 10.0 mi WNW 20.7 mph 34.5 mph N/A   Mostly Cloudy
10:35 AM 21.2 °F 4.9 °F 5.0 °F 50% 29.76 in 10.0 mi NW 23.0 mph 33.4 mph N/A   Mostly Cloudy
10:55 AM 23.0 °F 6.9 °F 5.0 °F 46% 29.76 in 10.0 mi NW 24.2 mph 33.4 mph N/A   Partly Cloudy
11:15 AM 23.0 °F 8.3 °F 3.2 °F 43% 29.77 in 10.0 mi NW 19.6 mph 32.2 mph N/A   Partly Cloudy
11:35 AM 24.8 °F 10.0 °F 3.2 °F 40% 29.77 in 10.0 mi NW 21.9 mph 33.4 mph N/A   Clear
11:55 AM 26.6 °F 12.0 °F 5.0 °F 40% 29.78 in 10.0 mi WNW 23.0 mph 29.9 mph N/A   Clear
12:15 PM 26.6 °F 13.4 °F 3.2 °F 37% 29.78 in 10.0 mi NW 18.4 mph 29.9 mph N/A   Clear
12:35 PM 26.6 °F 11.1 °F 1.4 °F 34% 29.79 in 10.0 mi NW 26.5 mph 34.5 mph N/A Snow Light Snow
12:55 PM 26.6 °F 12.0 °F 1.4 °F 34% 29.80 in 10.0 mi NW 23.0 mph 38.0 mph N/A   Clear
1:15 PM 26.6 °F 10.8 °F 1.4 °F 34% 29.81 in 10.0 mi NW 27.6 mph 34.5 mph N/A Snow Light Snow
1:35 PM 26.6 °F 12.7 °F -0.4 °F 31% 29.82 in 10.0 mi NNW 20.7 mph 33.4 mph N/A   Clear
1:55 PM 28.4 °F 13.8 °F 3.2 °F 34% 29.82 in 10.0 mi NW 25.3 mph 36.8 mph N/A   Clear
2:15 PM 28.4 °F 14.1 °F 1.4 °F 31% 29.83 in 10.0 mi NW 24.2 mph 35.7 mph N/A   Clear
2:35 PM 28.4 °F 13.3 °F 1.4 °F 31% 29.83 in 10.0 mi NW 27.6 mph 35.7 mph N/A Snow Light Snow
2:55 PM 30.2 °F 17.4 °F 1.4 °F 29% 29.83 in 10.0 mi NNW 20.7 mph 34.5 mph N/A   Clear
3:15 PM 30.2 °F 15.9 °F 1.4 °F 29% 29.84 in 10.0 mi NW 26.5 mph 38.0 mph N/A Snow Light Snow
3:35 PM 30.2 °F 14.9 °F 1.4 °F 29% 29.84 in 10.0 mi WNW 31.1 mph 38.0 mph N/A Snow Light Snow
3:55 PM 30.2 °F 16.5 °F 1.4 °F 29% 29.85 in 10.0 mi NW 24.2 mph 33.4 mph N/A   Clear
4:15 PM 30.2 °F 17.1 °F -0.4 °F 27% 29.86 in 10.0 mi NNW 21.9 mph 33.4 mph N/A   Clear
4:35 PM 30.2 °F 16.8 °F -0.4 °F 27% 29.87 in 10.0 mi NW 23.0 mph 35.7 mph N/A   Clear
4:55 PM 30.2 °F 14.7 °F -0.4 °F 27% 29.88 in 10.0 mi NW 32.2 mph 36.8 mph N/A Snow Light Snow
5:15 PM 30.2 °F 15.9 °F -2.2 °F 25% 29.89 in 10.0 mi NW 26.5 mph 40.3 mph N/A Snow Light Snow
5:35 PM 30.2 °F 16.8 °F -0.4 °F 27% 29.90 in 10.0 mi NW 23.0 mph 33.4 mph N/A   Clear
5:55 PM 30.2 °F 17.1 °F 1.4 °F 29% 29.92 in 10.0 mi NW 21.9 mph 29.9 mph N/A Snow Light Snow
6:15 PM 30.2 °F 16.5 °F -2.2 °F 25% 29.93 in 10.0 mi NW 24.2 mph 33.4 mph N/A   Clear
6:35 PM 30.2 °F 17.8 °F -0.4 °F 27% 29.95 in 10.0 mi NW 19.6 mph 27.6 mph N/A   Clear
6:55 PM 28.4 °F 16.2 °F 1.4 °F 31% 29.96 in 10.0 mi NW 17.3 mph 29.9 mph N/A   Clear
7:15 PM 28.4 °F 17.0 °F 3.2 °F 34% 29.98 in 10.0 mi NW 15.0 mph 21.9 mph N/A Snow Light Snow
7:35 PM 28.4 °F 16.2 °F 1.4 °F 31% 30.00 in 10.0 mi WNW 17.3 mph 23.0 mph N/A   Clear
7:55 PM 28.4 °F 15.8 °F 1.4 °F 31% 30.01 in 10.0 mi WNW 18.4 mph 25.3 mph N/A   Clear
8:15 PM 28.4 °F 15.8 °F 1.4 °F 31% 30.02 in 10.0 mi WNW 18.4 mph 26.5 mph N/A Snow Light Snow
8:35 PM 28.4 °F 17.0 °F 1.4 °F 31% 30.03 in 10.0 mi WNW 15.0 mph - N/A   Clear
8:55 PM 28.4 °F 16.2 °F 1.4 °F 31% 30.05 in 10.0 mi WNW 17.3 mph 24.2 mph N/A   Clear
9:15 PM 26.6 °F 14.3 °F 3.2 °F 37% 30.06 in 10.0 mi NW 16.1 mph 24.2 mph N/A   Clear
9:35 PM 26.6 °F 14.3 °F 1.4 °F 34% 30.07 in 10.0 mi NW 16.1 mph 26.5 mph N/A   Clear
9:55 PM 26.6 °F 13.8 °F 3.2 °F 37% 30.08 in 10.0 mi NW 17.3 mph - N/A   Clear
10:15 PM 26.6 °F 13.8 °F 3.2 °F 37% 30.09 in 10.0 mi NW 17.3 mph 23.0 mph N/A   Clear
10:35 PM 26.6 °F 15.2 °F 3.2 °F 37% 30.10 in 10.0 mi WNW 13.8 mph - N/A   Clear
10:55 PM 26.6 °F 15.7 °F 3.2 °F 37% 30.11 in 10.0 mi WNW 12.7 mph - N/A   Clear
11:15 PM 26.6 °F 16.2 °F 3.2 °F 37% 30.11 in 10.0 mi NW 11.5 mph - N/A   Clear
11:35 PM 26.6 °F 17.5 °F 3.2 °F 37% 30.12 in 10.0 mi WNW 9.2 mph - N/A   Clear
11:55 PM 26.6 °F 16.8 °F 5.0 °F 40% 30.13 in 10.0 mi WNW 10.4 mph - N/A   Clear